Afton Municipal Airport, WY

10:45 PM MST on December 05, 2019 (GMT -0700)
Afton Municipal

Weather History for KAFO - October, 2019

Change the Weather History Date:

Monday, October 14, 2019

  Actual Average Record
Temperature  
Mean Temperature 37 °F -  
Max Temperature 59 °F 57 °F 69 °F (2015)
Min Temperature 15 °F 25 °F 15 °F (2018)
Degree Days  
Heating Degree Days 28    
Moisture  
Dew Point 18 °F    
Average Humidity 54    
Maximum Humidity 86    
Minimum Humidity 20    
Precipitation  
Precipitation 0.00 in - - ()
Sea Level Pressure  
Sea Level Pressure 30.05 in    
Wind  
Wind Speed 2 mph ()    
Max Wind Speed 15 mph    
Max Gust Speed 24 mph    
Visibility 10.0 miles    
Events      
Averages and records for this station are not official NWS values.
T = Trace of Precipitation, MM = Missing Value Source: Averaged Metar Reports

Daily Weather History Graph

Daily Weather History Graph

Search for Another Location

Airport or City:

Astronomy

Oct. 14, 2019 Rise Set
Actual Time 7:35 AM MDT 6:43 PM MDT
Civil Twilight 7:07 AM MDT 7:11 PM MDT
Nautical Twilight 6:34 AM MDT 7:44 PM MDT
Astronomical Twilight 6:01 AM MDT 8:16 PM MDT
Moon 7:34 PM MDT (10/14) 8:10 AM MDT (10/14)
Length of Visible Light 12h 04m
Length of Day
11h 07m
Full, 99% of the Moon is Illuminated
Oct 14
Full
Oct 21
Last Quarter
Oct 27
New
Nov 4
First Quarter
Nov 12
Full

Hourly Weather History & Observations

Time (MDT) Temp. Windchill Dew Point Humidity Pressure Visibility Wind Dir Wind Speed Gust Speed Precip Events Conditions
12:15 AM 26.6 °F - 17.6 °F 69% 30.00 in 10.0 mi Calm Calm - N/A   Clear
12:35 AM 24.8 °F - 15.8 °F 69% 30.00 in 10.0 mi Calm Calm - N/A   Clear
12:55 AM 21.2 °F - 15.8 °F 80% 30.00 in 10.0 mi Calm Calm - N/A   Clear
1:15 AM 21.2 °F - 15.8 °F 80% 30.00 in 10.0 mi Calm Calm - N/A   Clear
1:35 AM 21.2 °F - 15.8 °F 80% 30.00 in 10.0 mi Calm Calm - N/A   Clear
1:55 AM 21.2 °F - 15.8 °F 80% 30.00 in 10.0 mi Calm Calm - N/A   Clear
2:15 AM 21.2 °F 16.4 °F 14.0 °F 74% 30.00 in 10.0 mi North 3.5 mph - N/A   Clear
2:35 AM 21.2 °F - 14.0 °F 74% 30.00 in 10.0 mi Calm Calm - N/A   Clear
2:55 AM 19.4 °F 14.3 °F 14.0 °F 80% 30.00 in 10.0 mi SSE 3.5 mph - N/A   Clear
3:15 AM 21.2 °F - 14.0 °F 74% 30.00 in 10.0 mi Calm Calm - N/A   Clear
3:35 AM 21.2 °F - 14.0 °F 74% 30.00 in 10.0 mi Calm Calm - N/A   Clear
3:55 AM 23.0 °F - 14.0 °F 68% 30.00 in 10.0 mi Calm Calm - N/A   Clear
4:15 AM 21.2 °F - 12.2 °F 68% 30.00 in 10.0 mi Calm Calm - N/A   Clear
4:35 AM 23.0 °F - 12.2 °F 63% 30.00 in 10.0 mi Calm Calm - N/A   Clear
4:55 AM 23.0 °F 18.4 °F 12.2 °F 63% 30.00 in 10.0 mi SSE 3.5 mph - N/A   Clear
5:15 AM 23.0 °F - 12.2 °F 63% 30.00 in 10.0 mi Calm Calm - N/A   Clear
5:35 AM 23.0 °F 17.0 °F 12.2 °F 63% 30.00 in 10.0 mi South 4.6 mph - N/A   Clear
5:55 AM 21.2 °F - 12.2 °F 68% 30.00 in 10.0 mi Calm Calm - N/A   Clear
6:15 AM 19.4 °F 14.3 °F 12.2 °F 74% 30.01 in 10.0 mi North 3.5 mph - N/A   Clear
6:35 AM 19.4 °F - 12.2 °F 74% 30.01 in 10.0 mi Calm Calm - N/A   Clear
7:15 AM 15.8 °F - 12.2 °F 86% 30.03 in 10.0 mi Calm Calm - N/A   Clear
7:35 AM 19.4 °F 14.3 °F 12.2 °F 74% 30.03 in 10.0 mi SSE 3.5 mph - N/A   Clear
7:55 AM 17.6 °F 12.3 °F 12.2 °F 79% 30.03 in 10.0 mi South 3.5 mph - N/A   Clear
8:15 AM 19.4 °F - 14.0 °F 80% 30.03 in 10.0 mi Calm Calm - N/A   Clear
8:35 AM 23.0 °F - 15.8 °F 74% 30.05 in 10.0 mi Calm Calm - N/A   Clear
8:55 AM 26.6 °F - 17.6 °F 69% 30.05 in 10.0 mi Calm Calm - N/A   Clear
9:15 AM 30.2 °F - 17.6 °F 60% 30.05 in 10.0 mi Calm Calm - N/A   Clear
9:35 AM 32.0 °F - 19.4 °F 60% 30.06 in 10.0 mi Calm Calm - N/A   Clear
9:55 AM 33.8 °F - 19.4 °F 56% 30.06 in 10.0 mi Calm Calm - N/A   Clear
10:10 AM 35.6 °F - 19.4 °F 52% 30.06 in 10.0 mi Calm Calm - N/A   Clear
10:35 AM 37.4 °F - 21.2 °F 52% 30.06 in 10.0 mi Calm Calm - N/A   Clear
10:55 AM 41.0 °F - 21.2 °F 45% 30.05 in 10.0 mi Calm Calm - N/A   Clear
11:15 AM 44.6 °F - 23.0 °F 43% 30.05 in 10.0 mi Calm Calm - N/A   Clear
11:35 AM 46.4 °F - 23.0 °F 40% 30.05 in 10.0 mi Calm Calm - N/A   Clear
11:55 AM 51.8 °F - 23.0 °F 33% 30.05 in 10.0 mi ENE 3.5 mph - N/A   Clear
12:15 PM 55.4 °F - 15.8 °F 21% 30.04 in 10.0 mi Calm Calm - N/A   Clear
12:35 PM 55.4 °F - 17.6 °F 23% 30.04 in 10.0 mi NNW 4.6 mph - N/A   Clear
12:55 PM 57.2 °F - 17.6 °F 21% 30.04 in 10.0 mi North 6.9 mph - N/A   Clear
1:15 PM 57.2 °F - 17.6 °F 21% 30.04 in 10.0 mi West 8.1 mph - N/A   Clear
1:35 PM 59.0 °F - 17.6 °F 20% 30.04 in 10.0 mi West 3.5 mph - N/A   Clear
1:55 PM 59.0 °F - 19.4 °F 22% 30.03 in 10.0 mi West 12.7 mph 17.3 mph N/A   Clear
2:15 PM 57.2 °F - 17.6 °F 21% 30.03 in 10.0 mi WNW 15.0 mph 24.2 mph N/A   Clear
2:35 PM 59.0 °F - 19.4 °F 22% 30.03 in 10.0 mi West 12.7 mph 16.1 mph N/A   Clear
2:55 PM 59.0 °F - 19.4 °F 22% 30.04 in 10.0 mi West 10.4 mph 18.4 mph N/A   Clear
3:15 PM 59.0 °F - 19.4 °F 22% 30.04 in 10.0 mi WSW 13.8 mph - N/A   Clear
3:35 PM 57.2 °F - 19.4 °F 23% 30.04 in 10.0 mi WSW 11.5 mph - N/A   Clear
3:55 PM 57.2 °F - 19.4 °F 23% 30.04 in 10.0 mi West 12.7 mph - N/A   Clear
4:15 PM 57.2 °F - 19.4 °F 23% 30.05 in 10.0 mi WNW 12.7 mph 18.4 mph N/A   Clear
4:35 PM 55.4 °F - 19.4 °F 25% 30.05 in 10.0 mi West 10.4 mph 18.4 mph N/A   Clear
4:55 PM 55.4 °F - 19.4 °F 25% 30.05 in 10.0 mi West 12.7 mph 19.6 mph N/A   Clear
5:15 PM 55.4 °F - 19.4 °F 25% 30.05 in 10.0 mi West 9.2 mph - N/A   Clear
5:35 PM 53.6 °F - 21.2 °F 28% 30.06 in 10.0 mi West 6.9 mph 20.7 mph N/A   Clear
5:55 PM 53.6 °F - 21.2 °F 28% 30.06 in 10.0 mi West 11.5 mph - N/A   Clear
6:15 PM 50.0 °F - 21.2 °F 32% 30.07 in 10.0 mi West 3.5 mph - N/A   Clear
6:35 PM 46.4 °F 45.2 °F 19.4 °F 34% 30.08 in 10.0 mi WNW 3.5 mph - N/A   Clear
6:55 PM 44.6 °F 43.1 °F 19.4 °F 37% 30.08 in 10.0 mi North 3.5 mph - N/A   Clear
7:15 PM 39.2 °F - 21.2 °F 49% 30.09 in 10.0 mi North - - N/A   Clear
7:35 PM 41.0 °F 39.0 °F 21.2 °F 45% 30.10 in 10.0 mi North 3.5 mph - N/A   Clear
7:55 PM 37.4 °F 34.9 °F 21.2 °F 52% 30.11 in 10.0 mi NNE 3.5 mph - N/A   Clear
8:15 PM 41.0 °F - 19.4 °F 42% 30.11 in 10.0 mi Calm Calm - N/A   Clear
8:35 PM 30.2 °F 25.4 °F 21.2 °F 69% 30.11 in 10.0 mi South 4.6 mph - N/A   Clear
8:55 PM 32.0 °F 26.4 °F 21.2 °F 64% 30.13 in 10.0 mi South 5.8 mph - N/A   Clear
9:15 PM 30.2 °F 24.3 °F 21.2 °F 69% 30.13 in 10.0 mi South 5.8 mph - N/A   Clear
9:35 PM 30.2 °F 24.3 °F 21.2 °F 69% 30.15 in 10.0 mi South 5.8 mph - N/A   Clear
9:55 PM 32.0 °F 26.4 °F 21.2 °F 64% 30.16 in 10.0 mi South 5.8 mph - N/A   Clear
10:15 PM 28.4 °F 22.2 °F 21.2 °F 74% 30.16 in 10.0 mi South 5.8 mph - N/A   Clear
10:35 PM 28.4 °F 21.2 °F 21.2 °F 74% 30.17 in 10.0 mi South 6.9 mph - N/A   Clear
10:55 PM 30.2 °F - 21.2 °F 69% 30.17 in 10.0 mi Calm Calm - N/A   Clear
11:15 PM 30.2 °F - 19.4 °F 64% 30.18 in 10.0 mi Calm Calm - N/A   Clear
11:35 PM 26.6 °F - 19.4 °F 74% 30.18 in 10.0 mi North - - N/A   Clear
11:55 PM 26.6 °F - 19.4 °F 74% 30.19 in 10.0 mi Calm Calm - N/A   Clear